Regional Weather Roundup
Issued by NWS

Home | Current Version | Previous Version | Graphics & Text | Print | Product List | Glossary On
Versions: 1 2 3 4 5 6 7 8 9 10 11 12 13 14 15 16 17 18 19 20 21 22 23 24 25 26 27 28 29 30 31 32 33 34 35 36 37 38 39 40 41 42 43 44 45 46 47 48 49 50
000
ASUS44 KMEG 211110
RWRTN
TENNESSEE HOURLY STATE WEATHER ROUNDUP
NATIONAL WEATHER SERVICE MEMPHIS TN
600 AM CDT SAT APR 21 2018

TNZ002-004-019-021-049-052-054-088>092-211200-
WEST TENNESSEE

CITY           SKY/WX    TMP DP  RH WIND       PRES   REMARKS
MEMPHIS INTL   FAIR      49  34  56 E3        30.22S
NWS MEMPHIS      N/A     42 N/A N/A MISG        N/A
JACKSON        FAIR      48  32  53 E3        30.26R
DYERSBURG      FAIR      45  33  63 E3        30.27S
SOMERVILLE     CLEAR     43  34  70 CALM      30.22S
COVINGTON      MOCLDY    46  36  66 CALM      30.25S
UNION CITY     CLEAR     43  34  70 CALM      30.27R
BOLIVAR        CLEAR     37  36  93 CALM      30.25R
PARIS          CLEAR     48  30  49 E6        30.28R
HUNTINGDON     CLEAR     45  32  61 CALM      30.27R
LEXINGTON      CLEAR     41  34  75 CALM      30.27R
SELMER         PTCLDY    45  34  65 E5        30.25S
SAVANNAH       CLEAR     39  37  93 CALM      30.26R
$$

TNZ008-025-027-028-033-062-065-066-211200-
NORTH MIDDLE TENNESSEE

CITY           SKY/WX    TMP DP  RH WIND       PRES   REMARKS
NASHVILLE      FAIR      40  33  76 CALM      30.31R
PORTLAND       CLEAR     46  27  46 CALM      30.30R
CLARKSVILLE    FAIR      43  30  60 E7        30.30S
SMYRNA         FAIR      38  34  85 SW3       30.32R
COOKEVILLE     PTCLDY    34  32  93 CALM      30.30S
LIVINGSTON     SUNNY     45  23  42 E6        30.30S
GALLATIN       CLEAR     45  28  53 CALM      30.34R
CROSSVILLE     FAIR      43  25  49 E3        30.33R
ROCKWOOD       PTSUNNY   46  19  34 E7        30.33R
$$

TNZ061-075-076-078-094-096-097-211200-
SOUTH MIDDLE TENNESSEE

CITY           SKY/WX    TMP DP  RH WIND       PRES   REMARKS
LEWISBURG      SUNNY     36  34  93 CALM      30.29R
FAYETTEVILLE   CLEAR     43  34  70 E5        30.28R
TULLAHOMA      CLEAR     37  32  81 CALM      30.28R
WINCHESTER     CLEAR     39  34  81 SE3       30.28S
MCMINNVILLE    CLEAR     37  32  81 NE3       30.30R
COLUMBIA       CLEAR     37  37 100 CALM      30.28S
SHELBYVILLE    CLEAR     37  34  87 CALM      30.29R
$$

TNZ017-018-042-046-047-211200-
NORTHEAST TENNESSEE

CITY           SKY/WX    TMP DP  RH WIND       PRES   REMARKS
TRI CITIES     FAIR      34  28  79 N3        30.38R
ELIZABETHTON   FAIR      34  28  80 CALM      30.38R
$$

TNZ012-013-036-069-073-074-211200-
CENTRAL EAST TENNESSEE

CITY           SKY/WX    TMP DP  RH WIND       PRES   REMARKS
KNOXVILLE      FAIR      40  34  79 NE3       30.34R
OAK RIDGE      FAIR      40  35  83 NE3       30.36R
DOWNTOWN KNOXV   N/A     37  37 100 CALM      30.36S FOG
GATLINBURG     PTCLDY    32  32 100 CALM      30.35S
MORRISTOWN     CLEAR     43  21  42 NE3       30.35R
JACKSBORO      CLEAR     32  32 100 CALM      30.40R
$$

TNZ083-085-099-211200-
SOUTHEAST TENNESSEE

CITY           SKY/WX    TMP DP  RH WIND       PRES   REMARKS
CHATTANOOGA    FAIR      40  37  89 CALM      30.34R
DAYTON         SUNNY     37  37 100 CALM      30.33R
$$

SKY/WX REPORTED AS FAIR MEANS FEW OR NO CLOUDS BELOW
12 THOUSAND FEET.





USA.gov is the U.S. government's official web portal to all federal, state and local government web resources and services.